M I D A S
Marine Information and Data Acquisition System
Tripno 1333 of the Zeeleeuw from 2007-06-07 05:49:06 to 2007-06-07 10:22:00
Back to CruiseResearch ActivitiesStationsMapUnderway DataData graphs

EquipmentUnitsComment
TimeDGPSUTC
LatitudeDGPSDM.mWGS84
LongitudeDGPSDM.mWGS84
TemperatureSBE03/SBE38deg celciusITS90
ConductivitySBE21S/mITS90
SalinitySBE21 Practical Salinity Units
ChlorophylAChelsea fluorimeterg/lCalibrated in Aceton
Missing or incorrect values are displayed as -999
Sea surface data collected by the RV Zeeleeuw from 2007-06-07 05:53:11 to 2007-06-07 10:32:34
                                                                                    Next 1000 lines
Time Latitude Longitude Temperature Conductivity Salinity ChlorophylA
2007-06-07 05:53:21 51°13.58 2°56.131 -999 -999 -999 -999
2007-06-07 05:53:26 51°13.581 2°56.128 -999 -999 -999 -999
2007-06-07 05:53:31 51°13.581 2°56.124 -999 -999 -999 -999
2007-06-07 05:53:36 51°13.582 2°56.12 -999 -999 -999 -999
2007-06-07 05:53:41 51°13.584 2°56.116 -999 -999 -999 -999
2007-06-07 05:53:46 51°13.585 2°56.111 -999 -999 -999 -999
2007-06-07 05:53:51 51°13.586 2°56.105 -999 -999 -999 -999
2007-06-07 05:53:56 51°13.588 2°56.099 -999 -999 -999 -999
2007-06-07 05:54:01 51°13.59 2°56.091 -999 -999 -999 -999
2007-06-07 05:54:06 51°13.593 2°56.084 -999 -999 -999 -999
2007-06-07 05:54:11 51°13.595 2°56.076 -999 -999 -999 -999
2007-06-07 05:54:16 51°13.598 2°56.067 -999 -999 -999 -999
2007-06-07 05:54:21 51°13.601 2°56.058 -999 -999 -999 -999
2007-06-07 05:54:27 51°13.605 2°56.047 -999 -999 -999 -999
2007-06-07 05:54:31 51°13.607 2°56.04 -999 -999 -999 -999
2007-06-07 05:54:36 51°13.611 2°56.03 -999 -999 -999 -999
2007-06-07 05:54:41 51°13.614 2°56.02 -999 -999 -999 -999
2007-06-07 05:54:46 51°13.618 2°56.01 -999 -999 -999 -999
2007-06-07 05:54:52 51°13.623 2°55.998 -999 -999 -999 -999
2007-06-07 05:54:56 51°13.626 2°55.99 -999 -999 -999 -999
2007-06-07 05:55:01 51°13.63 2°55.98 -999 -999 -999 -999
2007-06-07 05:55:06 51°13.634 2°55.97 -999 -999 -999 -999
2007-06-07 05:55:11 51°13.638 2°55.96 -999 -999 -999 -999
2007-06-07 05:55:16 51°13.643 2°55.95 -999 -999 -999 -999
2007-06-07 05:55:21 51°13.647 2°55.939 -999 -999 -999 -999
2007-06-07 05:55:26 51°13.652 2°55.929 -999 -999 -999 -999
2007-06-07 05:55:31 51°13.657 2°55.919 -999 -999 -999 -999
2007-06-07 05:55:37 51°13.662 2°55.907 -999 -999 -999 -999
2007-06-07 05:55:41 51°13.666 2°55.899 -999 -999 -999 -999
2007-06-07 05:55:46 51°13.67 2°55.889 -999 -999 -999 -999
2007-06-07 05:55:51 51°13.675 2°55.879 -999 -999 -999 -999
2007-06-07 05:55:56 51°13.679 2°55.869 -999 -999 -999 -999
2007-06-07 05:56:01 51°13.683 2°55.859 -999 -999 -999 -999
2007-06-07 05:56:06 51°13.688 2°55.848 -999 -999 -999 -999
2007-06-07 05:56:11 51°13.692 2°55.837 -999 -999 -999 -999
2007-06-07 05:56:16 51°13.697 2°55.826 -999 -999 -999 -999
2007-06-07 05:56:21 51°13.701 2°55.815 -999 -999 -999 -999
2007-06-07 05:56:26 51°13.706 2°55.804 -999 -999 -999 -999
2007-06-07 05:56:31 51°13.711 2°55.793 -999 -999 -999 -999
2007-06-07 05:56:36 51°13.716 2°55.782 -999 -999 -999 -999
2007-06-07 05:56:41 51°13.721 2°55.772 -999 -999 -999 -999
2007-06-07 05:56:47 51°13.728 2°55.759 -999 -999 -999 -999
2007-06-07 05:56:51 51°13.732 2°55.751 -999 -999 -999 -999
2007-06-07 05:56:56 51°13.738 2°55.741 -999 -999 -999 -999
2007-06-07 05:57:01 51°13.745 2°55.731 -999 -999 -999 -999
2007-06-07 05:57:07 51°13.752 2°55.72 -999 -999 -999 -999
2007-06-07 05:57:12 51°13.759 2°55.711 -999 -999 -999 -999
2007-06-07 05:57:16 51°13.764 2°55.704 -999 -999 -999 -999
2007-06-07 05:57:21 51°13.771 2°55.696 -999 -999 -999 -999
2007-06-07 05:57:26 51°13.779 2°55.689 -999 -999 -999 -999
2007-06-07 05:57:32 51°13.787 2°55.68 -999 -999 -999 -999
2007-06-07 05:57:37 51°13.794 2°55.673 -999 -999 -999 -999
2007-06-07 05:57:41 51°13.8 2°55.668 -999 -999 -999 -999
2007-06-07 05:57:46 51°13.808 2°55.662 -999 -999 -999 -999
2007-06-07 05:57:51 51°13.815 2°55.656 -999 -999 -999 -999
2007-06-07 05:57:57 51°13.823 2°55.65 -999 -999 -999 -999
2007-06-07 05:58:01 51°13.828 2°55.647 -999 -999 -999 -999
2007-06-07 05:58:06 51°13.835 2°55.644 -999 -999 -999 -999
2007-06-07 05:58:11 51°13.842 2°55.641 -999 -999 -999 -999
2007-06-07 05:58:16 51°13.848 2°55.638 -999 -999 -999 -999
2007-06-07 05:58:21 51°13.853 2°55.636 -999 -999 -999 -999
2007-06-07 05:58:26 51°13.859 2°55.635 -999 -999 -999 -999
2007-06-07 05:58:31 51°13.864 2°55.634 -999 -999 -999 -999
2007-06-07 05:58:36 51°13.869 2°55.633 -999 -999 -999 -999
2007-06-07 05:58:41 51°13.874 2°55.633 -999 -999 -999 -999
2007-06-07 05:58:46 51°13.879 2°55.633 -999 -999 -999 -999
2007-06-07 05:58:51 51°13.883 2°55.634 -999 -999 -999 -999
2007-06-07 05:58:56 51°13.888 2°55.634 -999 -999 -999 -999
2007-06-07 05:59:01 51°13.891 2°55.635 -999 -999 -999 -999
2007-06-07 05:59:06 51°13.895 2°55.636 -999 -999 -999 -999
2007-06-07 05:59:11 51°13.899 2°55.637 -999 -999 -999 -999
2007-06-07 05:59:16 51°13.902 2°55.638 -999 -999 -999 -999
2007-06-07 05:59:21 51°13.905 2°55.64 -999 -999 -999 -999
2007-06-07 05:59:26 51°13.908 2°55.641 -999 -999 -999 -999
2007-06-07 05:59:31 51°13.911 2°55.643 -999 -999 -999 -999
2007-06-07 05:59:36 51°13.913 2°55.644 -999 -999 -999 -999
2007-06-07 05:59:41 51°13.915 2°55.646 -999 -999 -999 -999
2007-06-07 05:59:46 51°13.918 2°55.648 -999 -999 -999 -999
2007-06-07 05:59:51 51°13.92 2°55.65 -999 -999 -999 -999
2007-06-07 05:59:56 51°13.922 2°55.651 -999 -999 -999 -999
2007-06-07 06:00:01 51°13.924 2°55.653 -999 -999 -999 -999
2007-06-07 06:00:06 51°13.926 2°55.655 -999 -999 -999 -999
2007-06-07 06:00:11 51°13.928 2°55.657 -999 -999 -999 -999
2007-06-07 06:00:16 51°13.929 2°55.659 -999 -999 -999 -999
2007-06-07 06:00:21 51°13.931 2°55.661 -999 -999 -999 -999
2007-06-07 06:00:26 51°13.932 2°55.664 -999 -999 -999 -999
2007-06-07 06:00:31 51°13.934 2°55.665 -999 -999 -999 -999
2007-06-07 06:00:36 51°13.935 2°55.667 -999 -999 -999 -999
2007-06-07 06:00:41 51°13.936 2°55.669 -999 -999 -999 -999
2007-06-07 06:00:46 51°13.937 2°55.671 -999 -999 -999 -999
2007-06-07 06:00:51 51°13.938 2°55.673 -999 -999 -999 -999
2007-06-07 06:00:56 51°13.939 2°55.675 -999 -999 -999 -999
2007-06-07 06:01:01 51°13.94 2°55.677 -999 -999 -999 -999
2007-06-07 06:01:06 51°13.941 2°55.678 -999 -999 -999 -999
2007-06-07 06:01:11 51°13.942 2°55.68 -999 -999 -999 -999
2007-06-07 06:01:16 51°13.942 2°55.681 -999 -999 -999 -999
2007-06-07 06:01:21 51°13.943 2°55.683 -999 -999 -999 -999
2007-06-07 06:01:26 51°13.943 2°55.685 -999 -999 -999 -999
2007-06-07 06:01:31 51°13.944 2°55.686 -999 -999 -999 -999
2007-06-07 06:01:36 51°13.944 2°55.688 -999 -999 -999 -999
2007-06-07 06:01:41 51°13.944 2°55.689 -999 -999 -999 -999
2007-06-07 06:01:46 51°13.945 2°55.691 -999 -999 -999 -999
2007-06-07 06:01:51 51°13.945 2°55.692 -999 -999 -999 -999
2007-06-07 06:01:56 51°13.945 2°55.694 -999 -999 -999 -999
2007-06-07 06:02:01 51°13.946 2°55.695 -999 -999 -999 -999
2007-06-07 06:02:06 51°13.946 2°55.696 -999 -999 -999 -999
2007-06-07 06:02:11 51°13.946 2°55.697 -999 -999 -999 -999
2007-06-07 06:02:16 51°13.946 2°55.698 -999 -999 -999 -999
2007-06-07 06:02:21 51°13.946 2°55.699 -999 -999 -999 -999
2007-06-07 06:02:26 51°13.946 2°55.7 -999 -999 -999 -999
2007-06-07 06:02:31 51°13.946 2°55.701 -999 -999 -999 -999
2007-06-07 06:02:36 51°13.946 2°55.701 -999 -999 -999 -999
2007-06-07 06:02:41 51°13.946 2°55.702 -999 -999 -999 -999
2007-06-07 06:02:46 51°13.945 2°55.702 -999 -999 -999 -999
2007-06-07 06:02:51 51°13.945 2°55.703 -999 -999 -999 -999
2007-06-07 06:02:56 51°13.945 2°55.703 -999 -999 -999 -999
2007-06-07 06:03:01 51°13.945 2°55.703 -999 -999 -999 -999
2007-06-07 06:03:06 51°13.944 2°55.703 -999 -999 -999 -999
2007-06-07 06:03:11 51°13.944 2°55.702 -999 -999 -999 -999
2007-06-07 06:03:16 51°13.944 2°55.7 -999 -999 -999 -999
2007-06-07 06:03:21 51°13.943 2°55.697 -999 -999 -999 -999
2007-06-07 06:03:26 51°13.943 2°55.692 -999 -999 -999 -999
2007-06-07 06:03:31 51°13.943 2°55.685 -999 -999 -999 -999
2007-06-07 06:03:36 51°13.944 2°55.678 -999 -999 -999 -999
2007-06-07 06:03:41 51°13.945 2°55.671 -999 -999 -999 -999
2007-06-07 06:03:46 51°13.948 2°55.662 -999 -999 -999 -999
2007-06-07 06:03:51 51°13.952 2°55.653 -999 -999 -999 -999
2007-06-07 06:03:56 51°13.957 2°55.641 -999 -999 -999 -999
2007-06-07 06:04:01 51°13.963 2°55.628 -999 -999 -999 -999
2007-06-07 06:04:06 51°13.97 2°55.615 -999 -999 -999 -999
2007-06-07 06:04:11 51°13.978 2°55.601 -999 -999 -999 -999
2007-06-07 06:04:16 51°13.987 2°55.587 -999 -999 -999 -999
2007-06-07 06:04:21 51°13.997 2°55.572 -999 -999 -999 -999
2007-06-07 06:04:26 51°14.007 2°55.557 -999 -999 -999 -999
2007-06-07 06:04:31 51°14.019 2°55.542 -999 -999 -999 -999
2007-06-07 06:04:36 51°14.03 2°55.528 -999 -999 -999 -999
2007-06-07 06:04:41 51°14.041 2°55.515 -999 -999 -999 -999
2007-06-07 06:04:46 51°14.053 2°55.503 -999 -999 -999 -999
2007-06-07 06:04:51 51°14.064 2°55.491 -999 -999 -999 -999
2007-06-07 06:04:56 51°14.075 2°55.479 -999 -999 -999 -999
2007-06-07 06:05:01 51°14.086 2°55.467 -999 -999 -999 -999
2007-06-07 06:05:06 51°14.098 2°55.456 -999 -999 -999 -999
2007-06-07 06:05:11 51°14.109 2°55.445 -999 -999 -999 -999
2007-06-07 06:05:16 51°14.12 2°55.434 -999 -999 -999 -999
2007-06-07 06:05:21 51°14.131 2°55.422 -999 -999 -999 -999
2007-06-07 06:05:26 51°14.142 2°55.409 -999 -999 -999 -999
2007-06-07 06:05:31 51°14.153 2°55.396 -999 -999 -999 -999
2007-06-07 06:05:36 51°14.163 2°55.383 -999 -999 -999 -999
2007-06-07 06:05:41 51°14.174 2°55.37 -999 -999 -999 -999
2007-06-07 06:05:46 51°14.185 2°55.356 -999 -999 -999 -999
2007-06-07 06:05:51 51°14.197 2°55.343 -999 -999 -999 -999
2007-06-07 06:05:56 51°14.208 2°55.33 -999 -999 -999 -999
2007-06-07 06:06:01 51°14.219 2°55.317 -999 -999 -999 -999
2007-06-07 06:06:06 51°14.23 2°55.303 -999 -999 -999 -999
2007-06-07 06:06:11 51°14.241 2°55.288 -999 -999 -999 -999
2007-06-07 06:06:16 51°14.251 2°55.273 -999 -999 -999 -999
2007-06-07 06:06:21 51°14.26 2°55.257 -999 -999 -999 -999
2007-06-07 06:06:26 51°14.27 2°55.24 -999 -999 -999 -999
2007-06-07 06:06:31 51°14.279 2°55.222 -999 -999 -999 -999
2007-06-07 06:06:36 51°14.288 2°55.205 -999 -999 -999 -999
2007-06-07 06:06:41 51°14.297 2°55.187 -999 -999 -999 -999
2007-06-07 06:06:46 51°14.306 2°55.17 -999 -999 -999 -999
2007-06-07 06:06:51 51°14.316 2°55.152 -999 -999 -999 -999
2007-06-07 06:06:56 51°14.325 2°55.135 -999 -999 -999 -999
2007-06-07 06:07:01 51°14.336 2°55.118 -999 -999 -999 -999
2007-06-07 06:07:06 51°14.347 2°55.101 -999 -999 -999 -999
2007-06-07 06:07:11 51°14.358 2°55.085 -999 -999 -999 -999
2007-06-07 06:07:16 51°14.37 2°55.068 -999 -999 -999 -999
2007-06-07 06:07:21 51°14.382 2°55.052 -999 -999 -999 -999
2007-06-07 06:07:26 51°14.395 2°55.035 -999 -999 -999 -999
2007-06-07 06:07:31 51°14.408 2°55.018 -999 -999 -999 -999
2007-06-07 06:07:36 51°14.422 2°55.001 -999 -999 -999 -999
2007-06-07 06:07:41 51°14.436 2°54.984 -999 -999 -999 -999
2007-06-07 06:07:46 51°14.451 2°54.968 -999 -999 -999 -999
2007-06-07 06:07:51 51°14.466 2°54.951 -999 -999 -999 -999
2007-06-07 06:07:56 51°14.481 2°54.936 -999 -999 -999 -999
2007-06-07 06:08:01 51°14.497 2°54.921 -999 -999 -999 -999
2007-06-07 06:08:06 51°14.512 2°54.907 -999 -999 -999 -999
2007-06-07 06:08:11 51°14.528 2°54.891 -999 -999 -999 -999
2007-06-07 06:08:16 51°14.543 2°54.877 -999 -999 -999 -999
2007-06-07 06:08:21 51°14.558 2°54.862 -999 -999 -999 -999
2007-06-07 06:08:26 51°14.574 2°54.847 -999 -999 -999 -999
2007-06-07 06:08:31 51°14.589 2°54.832 -999 -999 -999 -999
2007-06-07 06:08:36 51°14.605 2°54.818 -999 -999 -999 -999
2007-06-07 06:08:41 51°14.62 2°54.803 -999 -999 -999 -999
2007-06-07 06:08:46 51°14.636 2°54.788 -999 -999 -999 -999
2007-06-07 06:08:51 51°14.651 2°54.772 -999 -999 -999 -999
2007-06-07 06:08:56 51°14.667 2°54.757 -999 -999 -999 -999
2007-06-07 06:09:01 51°14.682 2°54.742 -999 -999 -999 -999
2007-06-07 06:09:06 51°14.697 2°54.726 -999 -999 -999 -999
2007-06-07 06:09:11 51°14.713 2°54.71 -999 -999 -999 -999
2007-06-07 06:09:16 51°14.728 2°54.695 -999 -999 -999 -999
2007-06-07 06:09:21 51°14.743 2°54.679 -999 -999 -999 -999
2007-06-07 06:09:26 51°14.759 2°54.663 -999 -999 -999 -999
2007-06-07 06:09:31 51°14.774 2°54.648 -999 -999 -999 -999
2007-06-07 06:09:36 51°14.789 2°54.632 -999 -999 -999 -999
2007-06-07 06:09:41 51°14.804 2°54.616 -999 -999 -999 -999
2007-06-07 06:09:46 51°14.82 2°54.6 -999 -999 -999 -999
2007-06-07 06:09:51 51°14.834 2°54.583 -999 -999 -999 -999
2007-06-07 06:09:56 51°14.849 2°54.566 -999 -999 -999 -999
2007-06-07 06:10:01 51°14.863 2°54.549 -999 -999 -999 -999
2007-06-07 06:10:06 51°14.877 2°54.531 -999 -999 -999 -999
2007-06-07 06:10:11 51°14.891 2°54.513 -999 -999 -999 -999
2007-06-07 06:10:16 51°14.905 2°54.495 -999 -999 -999 -999
2007-06-07 06:10:21 51°14.919 2°54.477 -999 -999 -999 -999
2007-06-07 06:10:26 51°14.933 2°54.459 -999 -999 -999 -999
2007-06-07 06:10:31 51°14.947 2°54.441 -999 -999 -999 -999
2007-06-07 06:10:36 51°14.96 2°54.421 -999 -999 -999 -999
2007-06-07 06:10:41 51°14.973 2°54.402 -999 -999 -999 -999
2007-06-07 06:10:46 51°14.985 2°54.381 -999 -999 -999 -999
2007-06-07 06:10:51 51°14.998 2°54.361 -999 -999 -999 -999
2007-06-07 06:10:56 51°15.01 2°54.341 -999 -999 -999 -999
2007-06-07 06:11:01 51°15.022 2°54.32 -999 -999 -999 -999
2007-06-07 06:11:06 51°15.035 2°54.3 -999 -999 -999 -999
2007-06-07 06:11:11 51°15.047 2°54.279 -999 -999 -999 -999
2007-06-07 06:11:16 51°15.06 2°54.258 -999 -999 -999 -999
2007-06-07 06:11:21 51°15.072 2°54.237 -999 -999 -999 -999
2007-06-07 06:11:26 51°15.084 2°54.216 -999 -999 -999 -999
2007-06-07 06:11:31 51°15.096 2°54.195 -999 -999 -999 -999
2007-06-07 06:11:36 51°15.107 2°54.172 -999 -999 -999 -999
2007-06-07 06:11:41 51°15.117 2°54.149 -999 -999 -999 -999
2007-06-07 06:11:46 51°15.127 2°54.125 -999 -999 -999 -999
2007-06-07 06:11:51 51°15.136 2°54.101 -999 -999 -999 -999
2007-06-07 06:11:56 51°15.144 2°54.075 -999 -999 -999 -999
2007-06-07 06:12:01 51°15.152 2°54.05 -999 -999 -999 -999
2007-06-07 06:12:06 51°15.159 2°54.024 -999 -999 -999 -999
2007-06-07 06:12:11 51°15.165 2°53.997 -999 -999 -999 -999
2007-06-07 06:12:16 51°15.17 2°53.97 -999 -999 -999 -999
2007-06-07 06:12:21 51°15.174 2°53.942 -999 -999 -999 -999
2007-06-07 06:12:26 51°15.179 2°53.915 -999 -999 -999 -999
2007-06-07 06:12:31 51°15.183 2°53.887 -999 -999 -999 -999
2007-06-07 06:12:36 51°15.187 2°53.859 -999 -999 -999 -999
2007-06-07 06:12:41 51°15.191 2°53.831 -999 -999 -999 -999
2007-06-07 06:12:46 51°15.194 2°53.803 -999 -999 -999 -999
2007-06-07 06:12:51 51°15.197 2°53.775 -999 -999 -999 -999
2007-06-07 06:12:56 51°15.201 2°53.747 -999 -999 -999 -999
2007-06-07 06:13:01 51°15.205 2°53.719 -999 -999 -999 -999
2007-06-07 06:13:06 51°15.208 2°53.691 -999 -999 -999 -999
2007-06-07 06:13:11 51°15.211 2°53.663 -999 -999 -999 -999
2007-06-07 06:13:16 51°15.215 2°53.635 -999 -999 -999 -999
2007-06-07 06:13:21 51°15.219 2°53.607 -999 -999 -999 -999
2007-06-07 06:13:26 51°15.223 2°53.579 -999 -999 -999 -999
2007-06-07 06:13:31 51°15.227 2°53.551 -999 -999 -999 -999
2007-06-07 06:13:36 51°15.23 2°53.523 -999 -999 -999 -999
2007-06-07 06:13:41 51°15.235 2°53.496 -999 -999 -999 -999
2007-06-07 06:13:46 51°15.238 2°53.468 -999 -999 -999 -999
2007-06-07 06:13:51 51°15.242 2°53.44 -999 -999 -999 -999
2007-06-07 06:13:56 51°15.246 2°53.412 -999 -999 -999 -999
2007-06-07 06:14:01 51°15.25 2°53.384 -999 -999 -999 -999
2007-06-07 06:14:06 51°15.254 2°53.357 -999 -999 -999 -999
2007-06-07 06:14:11 51°15.257 2°53.328 -999 -999 -999 -999
2007-06-07 06:14:16 51°15.261 2°53.301 -999 -999 -999 -999
2007-06-07 06:14:21 51°15.265 2°53.273 -999 -999 -999 -999
2007-06-07 06:14:26 51°15.268 2°53.245 -999 -999 -999 -999
2007-06-07 06:14:31 51°15.273 2°53.217 -999 -999 -999 -999
2007-06-07 06:14:36 51°15.275 2°53.189 -999 -999 -999 -999
2007-06-07 06:14:41 51°15.28 2°53.161 -999 -999 -999 -999
2007-06-07 06:14:46 51°15.283 2°53.133 -999 -999 -999 -999
2007-06-07 06:14:51 51°15.288 2°53.106 -999 -999 -999 -999
2007-06-07 06:14:56 51°15.292 2°53.078 -999 -999 -999 -999
2007-06-07 06:15:01 51°15.296 2°53.05 -999 -999 -999 -999
2007-06-07 06:15:06 51°15.3 2°53.022 -999 -999 -999 -999
2007-06-07 06:15:11 51°15.304 2°52.994 -999 -999 -999 -999
2007-06-07 06:15:16 51°15.308 2°52.967 -999 -999 -999 -999
2007-06-07 06:15:21 51°15.311 2°52.939 -999 -999 -999 -999
2007-06-07 06:15:26 51°15.316 2°52.911 -999 -999 -999 -999
2007-06-07 06:15:31 51°15.318 2°52.883 -999 -999 -999 -999
2007-06-07 06:15:36 51°15.322 2°52.855 -999 -999 -999 -999
2007-06-07 06:15:41 51°15.325 2°52.827 -999 -999 -999 -999
2007-06-07 06:15:46 51°15.329 2°52.8 -999 -999 -999 -999
2007-06-07 06:15:51 51°15.332 2°52.771 -999 -999 -999 -999
2007-06-07 06:15:56 51°15.336 2°52.744 -999 -999 -999 -999
2007-06-07 06:16:01 51°15.339 2°52.716 -999 -999 -999 -999
2007-06-07 06:16:06 51°15.343 2°52.688 -999 -999 -999 -999
2007-06-07 06:16:11 51°15.346 2°52.66 -999 -999 -999 -999
2007-06-07 06:16:16 51°15.349 2°52.632 -999 -999 -999 -999
2007-06-07 06:16:21 51°15.352 2°52.604 -999 -999 -999 -999
2007-06-07 06:16:26 51°15.356 2°52.577 -999 -999 -999 -999
2007-06-07 06:16:31 51°15.358 2°52.549 -999 -999 -999 -999
2007-06-07 06:16:36 51°15.361 2°52.521 -999 -999 -999 -999
2007-06-07 06:16:41 51°15.363 2°52.493 -999 -999 -999 -999
2007-06-07 06:16:46 51°15.365 2°52.465 -999 -999 -999 -999
2007-06-07 06:16:51 51°15.367 2°52.437 -999 -999 -999 -999
2007-06-07 06:16:56 51°15.37 2°52.409 -999 -999 -999 -999
2007-06-07 06:17:01 51°15.372 2°52.381 -999 -999 -999 -999
2007-06-07 06:17:06 51°15.375 2°52.353 -999 -999 -999 -999
2007-06-07 06:17:11 51°15.377 2°52.325 -999 -999 -999 -999
2007-06-07 06:17:16 51°15.378 2°52.297 -999 -999 -999 -999
2007-06-07 06:17:21 51°15.381 2°52.269 -999 -999 -999 -999
2007-06-07 06:17:26 51°15.383 2°52.24 -999 -999 -999 -999
2007-06-07 06:17:31 51°15.385 2°52.212 -999 -999 -999 -999
2007-06-07 06:17:36 51°15.387 2°52.184 -999 -999 -999 -999
2007-06-07 06:17:41 51°15.39 2°52.156 -999 -999 -999 -999
2007-06-07 06:17:46 51°15.392 2°52.128 -999 -999 -999 -999
2007-06-07 06:17:51 51°15.394 2°52.1 -999 -999 -999 -999
2007-06-07 06:17:56 51°15.397 2°52.072 -999 -999 -999 -999
2007-06-07 06:18:01 51°15.399 2°52.044 -999 -999 -999 -999
2007-06-07 06:18:06 51°15.402 2°52.016 -999 -999 -999 -999
2007-06-07 06:18:11 51°15.404 2°51.988 -999 -999 -999 -999
2007-06-07 06:18:16 51°15.406 2°51.959 -999 -999 -999 -999
2007-06-07 06:18:21 51°15.409 2°51.931 -999 -999 -999 -999
2007-06-07 06:18:26 51°15.411 2°51.903 -999 -999 -999 -999
2007-06-07 06:18:31 51°15.414 2°51.875 -999 -999 -999 -999
2007-06-07 06:18:36 51°15.417 2°51.847 -999 -999 -999 -999
2007-06-07 06:18:41 51°15.42 2°51.819 -999 -999 -999 -999
2007-06-07 06:18:46 51°15.421 2°51.792 -999 -999 -999 -999
2007-06-07 06:18:51 51°15.424 2°51.764 -999 -999 -999 -999
2007-06-07 06:18:56 51°15.425 2°51.735 -999 -999 -999 -999
2007-06-07 06:19:01 51°15.427 2°51.708 -999 -999 -999 -999
2007-06-07 06:19:06 51°15.427 2°51.679 -999 -999 -999 -999
2007-06-07 06:19:11 51°15.428 2°51.651 -999 -999 -999 -999
2007-06-07 06:19:16 51°15.428 2°51.623 -999 -999 -999 -999
2007-06-07 06:19:21 51°15.429 2°51.594 -999 -999 -999 -999
2007-06-07 06:19:26 51°15.429 2°51.566 -999 -999 -999 -999
2007-06-07 06:19:31 51°15.429 2°51.537 -999 -999 -999 -999
2007-06-07 06:19:36 51°15.429 2°51.509 -999 -999 -999 -999
2007-06-07 06:19:41 51°15.43 2°51.481 -999 -999 -999 -999
2007-06-07 06:19:46 51°15.429 2°51.452 -999 -999 -999 -999
2007-06-07 06:19:51 51°15.43 2°51.424 -999 -999 -999 -999
2007-06-07 06:19:56 51°15.429 2°51.396 -999 -999 -999 -999
2007-06-07 06:20:01 51°15.431 2°51.368 -999 -999 -999 -999
2007-06-07 06:20:06 51°15.429 2°51.339 -999 -999 -999 -999
2007-06-07 06:20:11 51°15.429 2°51.311 -999 -999 -999 -999
2007-06-07 06:20:16 51°15.429 2°51.282 -999 -999 -999 -999
2007-06-07 06:20:21 51°15.429 2°51.254 -999 -999 -999 -999
2007-06-07 06:20:26 51°15.429 2°51.225 -999 -999 -999 -999
2007-06-07 06:20:31 51°15.429 2°51.197 -999 -999 -999 -999
2007-06-07 06:20:36 51°15.429 2°51.169 -999 -999 -999 -999
2007-06-07 06:20:41 51°15.429 2°51.14 -999 -999 -999 -999
2007-06-07 06:20:46 51°15.43 2°51.112 -999 -999 -999 -999
2007-06-07 06:20:51 51°15.429 2°51.084 -999 -999 -999 -999
2007-06-07 06:20:56 51°15.43 2°51.055 -999 -999 -999 -999
2007-06-07 06:21:01 51°15.429 2°51.027 -999 -999 -999 -999
2007-06-07 06:21:06 51°15.43 2°50.998 -999 -999 -999 -999
2007-06-07 06:21:11 51°15.43 2°50.97 -999 -999 -999 -999
2007-06-07 06:21:16 51°15.43 2°50.941 -999 -999 -999 -999
2007-06-07 06:21:21 51°15.43 2°50.913 -999 -999 -999 -999
2007-06-07 06:21:26 51°15.43 2°50.885 -999 -999 -999 -999
2007-06-07 06:21:31 51°15.43 2°50.857 -999 -999 -999 -999
2007-06-07 06:21:36 51°15.431 2°50.828 -999 -999 -999 -999
2007-06-07 06:21:41 51°15.429 2°50.8 -999 -999 -999 -999
2007-06-07 06:21:46 51°15.43 2°50.771 -999 -999 -999 -999
2007-06-07 06:21:51 51°15.43 2°50.743 -999 -999 -999 -999
2007-06-07 06:21:56 51°15.43 2°50.714 -999 -999 -999 -999
2007-06-07 06:22:01 51°15.43 2°50.686 -999 -999 -999 -999
2007-06-07 06:22:06 51°15.429 2°50.658 -999 -999 -999 -999
2007-06-07 06:22:11 51°15.429 2°50.629 -999 -999 -999 -999
2007-06-07 06:22:16 51°15.429 2°50.601 -999 -999 -999 -999
2007-06-07 06:22:21 51°15.429 2°50.572 -999 -999 -999 -999
2007-06-07 06:22:26 51°15.427 2°50.544 -999 -999 -999 -999
2007-06-07 06:22:31 51°15.427 2°50.516 -999 -999 -999 -999
2007-06-07 06:22:36 51°15.423 2°50.488 -999 -999 -999 -999
2007-06-07 06:22:41 51°15.423 2°50.459 -999 -999 -999 -999
2007-06-07 06:22:46 51°15.42 2°50.431 -999 -999 -999 -999
2007-06-07 06:22:51 51°15.419 2°50.403 -999 -999 -999 -999
2007-06-07 06:22:56 51°15.416 2°50.375 -999 -999 -999 -999
2007-06-07 06:23:01 51°15.415 2°50.346 -999 -999 -999 -999
2007-06-07 06:23:06 51°15.413 2°50.318 -999 -999 -999 -999
2007-06-07 06:23:11 51°15.413 2°50.289 -999 -999 -999 -999
2007-06-07 06:23:16 51°15.411 2°50.261 -999 -999 -999 -999
2007-06-07 06:23:21 51°15.41 2°50.233 -999 -999 -999 -999
2007-06-07 06:23:26 51°15.408 2°50.205 -999 -999 -999 -999
2007-06-07 06:23:31 51°15.407 2°50.177 -999 -999 -999 -999
2007-06-07 06:23:36 51°15.405 2°50.148 -999 -999 -999 -999
2007-06-07 06:23:41 51°15.405 2°50.12 -999 -999 -999 -999
2007-06-07 06:23:46 51°15.403 2°50.091 -999 -999 -999 -999
2007-06-07 06:23:51 51°15.402 2°50.063 -999 -999 -999 -999
2007-06-07 06:23:56 51°15.401 2°50.034 -999 -999 -999 -999
2007-06-07 06:24:01 51°15.4 2°50.005 -999 -999 -999 -999
2007-06-07 06:24:06 51°15.399 2°49.977 -999 -999 -999 -999
2007-06-07 06:24:11 51°15.398 2°49.948 -999 -999 -999 -999
2007-06-07 06:24:16 51°15.397 2°49.92 -999 -999 -999 -999
2007-06-07 06:24:21 51°15.396 2°49.891 -999 -999 -999 -999
2007-06-07 06:24:26 51°15.395 2°49.862 -999 -999 -999 -999
2007-06-07 06:24:31 51°15.395 2°49.834 -999 -999 -999 -999
2007-06-07 06:24:36 51°15.394 2°49.805 -999 -999 -999 -999
2007-06-07 06:24:41 51°15.393 2°49.777 -999 -999 -999 -999
2007-06-07 06:24:46 51°15.391 2°49.748 -999 -999 -999 -999
2007-06-07 06:24:51 51°15.392 2°49.72 -999 -999 -999 -999
2007-06-07 06:24:56 51°15.389 2°49.692 -999 -999 -999 -999
2007-06-07 06:25:01 51°15.39 2°49.663 -999 -999 -999 -999
2007-06-07 06:25:06 51°15.387 2°49.635 -999 -999 -999 -999
2007-06-07 06:25:11 51°15.387 2°49.606 -999 -999 -999 -999
2007-06-07 06:25:16 51°15.385 2°49.578 -999 -999 -999 -999
2007-06-07 06:25:21 51°15.386 2°49.55 -999 -999 -999 -999
2007-06-07 06:25:26 51°15.384 2°49.521 -999 -999 -999 -999
2007-06-07 06:25:31 51°15.384 2°49.493 -999 -999 -999 -999
2007-06-07 06:25:36 51°15.382 2°49.465 -999 -999 -999 -999
2007-06-07 06:25:41 51°15.382 2°49.437 -999 -999 -999 -999
2007-06-07 06:25:46 51°15.38 2°49.408 -999 -999 -999 -999
2007-06-07 06:25:51 51°15.38 2°49.38 -999 -999 -999 -999
2007-06-07 06:25:56 51°15.378 2°49.352 -999 -999 -999 -999
2007-06-07 06:26:01 51°15.378 2°49.323 -999 -999 -999 -999
2007-06-07 06:26:06 51°15.376 2°49.294 -999 -999 -999 -999
2007-06-07 06:26:11 51°15.376 2°49.266 -999 -999 -999 -999
2007-06-07 06:26:16 51°15.374 2°49.237 -999 -999 -999 -999
2007-06-07 06:26:21 51°15.373 2°49.208 -999 -999 -999 -999
2007-06-07 06:26:26 51°15.372 2°49.18 -999 -999 -999 -999
2007-06-07 06:26:31 51°15.371 2°49.151 -999 -999 -999 -999
2007-06-07 06:26:36 51°15.37 2°49.122 -999 -999 -999 -999
2007-06-07 06:26:41 51°15.37 2°49.094 -999 -999 -999 -999
2007-06-07 06:26:46 51°15.368 2°49.065 -999 -999 -999 -999
2007-06-07 06:26:51 51°15.367 2°49.037 -999 -999 -999 -999
2007-06-07 06:26:56 51°15.367 2°49.008 -999 -999 -999 -999
2007-06-07 06:27:01 51°15.364 2°48.98 -999 -999 -999 -999
2007-06-07 06:27:06 51°15.364 2°48.951 -999 -999 -999 -999
2007-06-07 06:27:11 51°15.363 2°48.923 -999 -999 -999 -999
2007-06-07 06:27:16 51°15.362 2°48.894 -999 -999 -999 -999
2007-06-07 06:27:21 51°15.362 2°48.866 -999 -999 -999 -999
2007-06-07 06:27:26 51°15.36 2°48.837 -999 -999 -999 -999
2007-06-07 06:27:31 51°15.36 2°48.808 -999 -999 -999 -999
2007-06-07 06:27:36 51°15.359 2°48.779 -999 -999 -999 -999
2007-06-07 06:27:41 51°15.358 2°48.75 -999 -999 -999 -999
2007-06-07 06:27:46 51°15.357 2°48.721 -999 -999 -999 -999
2007-06-07 06:27:51 51°15.357 2°48.693 -999 -999 -999 -999
2007-06-07 06:27:56 51°15.356 2°48.663 -999 -999 -999 -999
2007-06-07 06:28:01 51°15.356 2°48.634 -999 -999 -999 -999
2007-06-07 06:28:06 51°15.355 2°48.606 -999 -999 -999 -999
2007-06-07 06:28:11 51°15.354 2°48.577 -999 -999 -999 -999
2007-06-07 06:28:16 51°15.354 2°48.548 -999 -999 -999 -999
2007-06-07 06:28:21 51°15.352 2°48.519 -999 -999 -999 -999
2007-06-07 06:28:26 51°15.352 2°48.491 -999 -999 -999 -999
2007-06-07 06:28:31 51°15.35 2°48.462 -999 -999 -999 -999
2007-06-07 06:28:36 51°15.35 2°48.434 -999 -999 -999 -999
2007-06-07 06:28:41 51°15.348 2°48.405 -999 -999 -999 -999
2007-06-07 06:28:46 51°15.348 2°48.377 -999 -999 -999 -999
2007-06-07 06:28:51 51°15.347 2°48.348 -999 -999 -999 -999
2007-06-07 06:28:56 51°15.346 2°48.32 -999 -999 -999 -999
2007-06-07 06:29:01 51°15.344 2°48.291 -999 -999 -999 -999
2007-06-07 06:29:06 51°15.345 2°48.263 -999 -999 -999 -999
2007-06-07 06:29:11 51°15.342 2°48.234 -999 -999 -999 -999
2007-06-07 06:29:16 51°15.343 2°48.205 -999 -999 -999 -999
2007-06-07 06:29:21 51°15.341 2°48.177 -999 -999 -999 -999
2007-06-07 06:29:26 51°15.341 2°48.148 -999 -999 -999 -999
2007-06-07 06:29:31 51°15.339 2°48.12 -999 -999 -999 -999
2007-06-07 06:29:36 51°15.339 2°48.09 -999 -999 -999 -999
2007-06-07 06:29:41 51°15.338 2°48.062 -999 -999 -999 -999
2007-06-07 06:29:46 51°15.336 2°48.033 -999 -999 -999 -999
2007-06-07 06:29:51 51°15.337 2°48.004 -999 -999 -999 -999
2007-06-07 06:29:56 51°15.335 2°47.976 -999 -999 -999 -999
2007-06-07 06:30:01 51°15.334 2°47.948 -999 -999 -999 -999
2007-06-07 06:30:06 51°15.333 2°47.919 -999 -999 -999 -999
2007-06-07 06:30:11 51°15.333 2°47.89 -999 -999 -999 -999
2007-06-07 06:30:16 51°15.33 2°47.861 -999 -999 -999 -999
2007-06-07 06:30:21 51°15.331 2°47.832 -999 -999 -999 -999
2007-06-07 06:30:26 51°15.329 2°47.804 -999 -999 -999 -999
2007-06-07 06:30:31 51°15.329 2°47.775 -999 -999 -999 -999
2007-06-07 06:30:36 51°15.328 2°47.747 -999 -999 -999 -999
2007-06-07 06:30:41 51°15.327 2°47.719 -999 -999 -999 -999
2007-06-07 06:30:46 51°15.325 2°47.69 -999 -999 -999 -999
2007-06-07 06:30:51 51°15.325 2°47.662 -999 -999 -999 -999
2007-06-07 06:30:56 51°15.323 2°47.633 -999 -999 -999 -999
2007-06-07 06:31:01 51°15.323 2°47.604 -999 -999 -999 -999
2007-06-07 06:31:06 51°15.321 2°47.575 -999 -999 -999 -999
2007-06-07 06:31:11 51°15.32 2°47.546 -999 -999 -999 -999
2007-06-07 06:31:16 51°15.319 2°47.517 -999 -999 -999 -999
2007-06-07 06:31:21 51°15.317 2°47.489 -999 -999 -999 -999
2007-06-07 06:31:26 51°15.317 2°47.459 -999 -999 -999 -999
2007-06-07 06:31:31 51°15.317 2°47.43 -999 -999 -999 -999
2007-06-07 06:31:36 51°15.315 2°47.401 -999 -999 -999 -999
2007-06-07 06:31:41 51°15.315 2°47.373 -999 -999 -999 -999
2007-06-07 06:31:46 51°15.313 2°47.344 -999 -999 -999 -999
2007-06-07 06:31:51 51°15.313 2°47.315 -999 -999 -999 -999
2007-06-07 06:31:56 51°15.312 2°47.286 -999 -999 -999 -999
2007-06-07 06:32:01 51°15.31 2°47.257 -999 -999 -999 -999
2007-06-07 06:32:06 51°15.31 2°47.228 -999 -999 -999 -999
2007-06-07 06:32:11 51°15.309 2°47.2 -999 -999 -999 -999
2007-06-07 06:32:16 51°15.308 2°47.171 -999 -999 -999 -999
2007-06-07 06:32:21 51°15.307 2°47.142 -999 -999 -999 -999
2007-06-07 06:32:26 51°15.306 2°47.113 -999 -999 -999 -999
2007-06-07 06:32:31 51°15.306 2°47.084 -999 -999 -999 -999
2007-06-07 06:32:36 51°15.304 2°47.055 -999 -999 -999 -999
2007-06-07 06:32:41 51°15.303 2°47.026 -999 -999 -999 -999
2007-06-07 06:32:46 51°15.302 2°46.997 -999 -999 -999 -999
2007-06-07 06:32:51 51°15.301 2°46.968 -999 -999 -999 -999
2007-06-07 06:32:56 51°15.3 2°46.938 -999 -999 -999 -999
2007-06-07 06:33:01 51°15.299 2°46.909 -999 -999 -999 -999
2007-06-07 06:33:06 51°15.298 2°46.879 -999 -999 -999 -999
2007-06-07 06:33:11 51°15.298 2°46.849 -999 -999 -999 -999
2007-06-07 06:33:16 51°15.297 2°46.82 -999 -999 -999 -999
2007-06-07 06:33:21 51°15.296 2°46.791 -999 -999 -999 -999
2007-06-07 06:33:26 51°15.296 2°46.762 -999 -999 -999 -999
2007-06-07 06:33:31 51°15.295 2°46.733 -999 -999 -999 -999
2007-06-07 06:33:36 51°15.293 2°46.704 -999 -999 -999 -999
2007-06-07 06:33:41 51°15.293 2°46.675 -999 -999 -999 -999
2007-06-07 06:33:46 51°15.291 2°46.646 -999 -999 -999 -999
2007-06-07 06:33:51 51°15.291 2°46.617 -999 -999 -999 -999
2007-06-07 06:33:56 51°15.289 2°46.588 -999 -999 -999 -999
2007-06-07 06:34:01 51°15.289 2°46.559 -999 -999 -999 -999
2007-06-07 06:34:06 51°15.288 2°46.53 -999 -999 -999 -999
2007-06-07 06:34:11 51°15.287 2°46.502 -999 -999 -999 -999
2007-06-07 06:34:16 51°15.286 2°46.473 -999 -999 -999 -999
2007-06-07 06:34:21 51°15.285 2°46.444 -999 -999 -999 -999
2007-06-07 06:34:26 51°15.285 2°46.416 -999 -999 -999 -999
2007-06-07 06:34:31 51°15.283 2°46.387 -999 -999 -999 -999
2007-06-07 06:34:36 51°15.283 2°46.358 -999 -999 -999 -999
2007-06-07 06:34:41 51°15.281 2°46.33 -999 -999 -999 -999
2007-06-07 06:34:46 51°15.281 2°46.301 -999 -999 -999 -999
2007-06-07 06:34:51 51°15.28 2°46.273 -999 -999 -999 -999
2007-06-07 06:34:56 51°15.279 2°46.244 -999 -999 -999 -999
2007-06-07 06:35:01 51°15.278 2°46.215 -999 -999 -999 -999
2007-06-07 06:35:06 51°15.278 2°46.186 -999 -999 -999 -999
2007-06-07 06:35:11 51°15.277 2°46.157 -999 -999 -999 -999
2007-06-07 06:35:16 51°15.277 2°46.128 -999 -999 -999 -999
2007-06-07 06:35:21 51°15.275 2°46.099 -999 -999 -999 -999
2007-06-07 06:35:26 51°15.275 2°46.071 -999 -999 -999 -999
2007-06-07 06:35:31 51°15.274 2°46.042 -999 -999 -999 -999
2007-06-07 06:35:36 51°15.273 2°46.014 -999 -999 -999 -999
2007-06-07 06:35:41 51°15.272 2°45.985 -999 -999 -999 -999
2007-06-07 06:35:46 51°15.27 2°45.957 -999 -999 -999 -999
2007-06-07 06:35:51 51°15.269 2°45.928 -999 -999 -999 -999
2007-06-07 06:35:56 51°15.269 2°45.899 -999 -999 -999 -999
2007-06-07 06:36:01 51°15.268 2°45.87 -999 -999 -999 -999
2007-06-07 06:36:06 51°15.267 2°45.841 -999 -999 -999 -999
2007-06-07 06:36:11 51°15.267 2°45.813 -999 -999 -999 -999
2007-06-07 06:36:16 51°15.266 2°45.784 -999 -999 -999 -999
2007-06-07 06:36:21 51°15.265 2°45.756 -999 -999 -999 -999
2007-06-07 06:36:26 51°15.265 2°45.727 -999 -999 -999 -999
2007-06-07 06:36:31 51°15.263 2°45.699 -999 -999 -999 -999
2007-06-07 06:36:36 51°15.263 2°45.671 -999 -999 -999 -999
2007-06-07 06:36:41 51°15.261 2°45.642 -999 -999 -999 -999
2007-06-07 06:36:46 51°15.26 2°45.614 -999 -999 -999 -999
2007-06-07 06:36:51 51°15.259 2°45.585 -999 -999 -999 -999
2007-06-07 06:36:56 51°15.259 2°45.557 -999 -999 -999 -999
2007-06-07 06:37:01 51°15.258 2°45.529 -999 -999 -999 -999
2007-06-07 06:37:06 51°15.257 2°45.5 -999 -999 -999 -999
2007-06-07 06:37:11 51°15.256 2°45.471 -999 -999 -999 -999
2007-06-07 06:37:16 51°15.255 2°45.442 -999 -999 -999 -999
2007-06-07 06:37:21 51°15.254 2°45.413 -999 -999 -999 -999
2007-06-07 06:37:26 51°15.253 2°45.384 -999 -999 -999 -999
2007-06-07 06:37:31 51°15.252 2°45.356 -999 -999 -999 -999
2007-06-07 06:37:36 51°15.252 2°45.327 -999 -999 -999 -999
2007-06-07 06:37:41 51°15.251 2°45.298 -999 -999 -999 -999
2007-06-07 06:37:46 51°15.251 2°45.269 -999 -999 -999 -999
2007-06-07 06:37:51 51°15.251 2°45.24 -999 -999 -999 -999
2007-06-07 06:37:56 51°15.25 2°45.211 -999 -999 -999 -999
2007-06-07 06:38:01 51°15.25 2°45.181 -999 -999 -999 -999
2007-06-07 06:38:06 51°15.25 2°45.152 -999 -999 -999 -999
2007-06-07 06:38:11 51°15.249 2°45.124 -999 -999 -999 -999
2007-06-07 06:38:16 51°15.249 2°45.094 -999 -999 -999 -999
2007-06-07 06:38:21 51°15.249 2°45.065 -999 -999 -999 -999
2007-06-07 06:38:26 51°15.248 2°45.036 -999 -999 -999 -999
2007-06-07 06:38:31 51°15.248 2°45.007 -999 -999 -999 -999
2007-06-07 06:38:36 51°15.248 2°44.978 -999 -999 -999 -999
2007-06-07 06:38:41 51°15.246 2°44.949 -999 -999 -999 -999
2007-06-07 06:38:46 51°15.246 2°44.921 -999 -999 -999 -999
2007-06-07 06:38:51 51°15.244 2°44.892 -999 -999 -999 -999
2007-06-07 06:38:56 51°15.243 2°44.863 -999 -999 -999 -999
2007-06-07 06:39:01 51°15.241 2°44.835 -999 -999 -999 -999
2007-06-07 06:39:06 51°15.241 2°44.806 -999 -999 -999 -999
2007-06-07 06:39:11 51°15.24 2°44.777 -999 -999 -999 -999
2007-06-07 06:39:16 51°15.239 2°44.748 -999 -999 -999 -999
2007-06-07 06:39:21 51°15.238 2°44.72 -999 -999 -999 -999
2007-06-07 06:39:26 51°15.237 2°44.691 -999 -999 -999 -999
2007-06-07 06:39:31 51°15.236 2°44.662 -999 -999 -999 -999
2007-06-07 06:39:36 51°15.236 2°44.634 -999 -999 -999 -999
2007-06-07 06:39:41 51°15.234 2°44.605 -999 -999 -999 -999
2007-06-07 06:39:46 51°15.233 2°44.576 -999 -999 -999 -999
2007-06-07 06:39:51 51°15.232 2°44.548 -999 -999 -999 -999
2007-06-07 06:39:56 51°15.231 2°44.519 -999 -999 -999 -999
2007-06-07 06:40:01 51°15.23 2°44.491 -999 -999 -999 -999
2007-06-07 06:40:06 51°15.229 2°44.462 -999 -999 -999 -999
2007-06-07 06:40:11 51°15.229 2°44.434 -999 -999 -999 -999
2007-06-07 06:40:16 51°15.227 2°44.405 -999 -999 -999 -999
2007-06-07 06:40:21 51°15.227 2°44.376 -999 -999 -999 -999
2007-06-07 06:40:26 51°15.227 2°44.347 -999 -999 -999 -999
2007-06-07 06:40:31 51°15.226 2°44.319 -999 -999 -999 -999
2007-06-07 06:40:36 51°15.226 2°44.29 -999 -999 -999 -999
2007-06-07 06:40:41 51°15.225 2°44.261 -999 -999 -999 -999
2007-06-07 06:40:46 51°15.224 2°44.232 -999 -999 -999 -999
2007-06-07 06:40:51 51°15.222 2°44.204 -999 -999 -999 -999
2007-06-07 06:40:56 51°15.223 2°44.174 -999 -999 -999 -999
2007-06-07 06:41:01 51°15.222 2°44.146 -999 -999 -999 -999
2007-06-07 06:41:06 51°15.22 2°44.117 -999 -999 -999 -999
2007-06-07 06:41:11 51°15.22 2°44.088 -999 -999 -999 -999
2007-06-07 06:41:16 51°15.219 2°44.06 -999 -999 -999 -999
2007-06-07 06:41:21 51°15.218 2°44.031 -999 -999 -999 -999
2007-06-07 06:41:26 51°15.217 2°44.002 -999 -999 -999 -999
2007-06-07 06:41:31 51°15.216 2°43.973 -999 -999 -999 -999
2007-06-07 06:41:36 51°15.215 2°43.944 -999 -999 -999 -999
2007-06-07 06:41:41 51°15.214 2°43.916 -999 -999 -999 -999
2007-06-07 06:41:46 51°15.215 2°43.887 -999 -999 -999 -999
2007-06-07 06:41:51 51°15.213 2°43.858 -999 -999 -999 -999
2007-06-07 06:41:56 51°15.212 2°43.83 -999 -999 -999 -999
2007-06-07 06:42:01 51°15.211 2°43.801 -999 -999 -999 -999
2007-06-07 06:42:06 51°15.211 2°43.772 -999 -999 -999 -999
2007-06-07 06:42:11 51°15.21 2°43.743 -999 -999 -999 -999
2007-06-07 06:42:16 51°15.209 2°43.715 -999 -999 -999 -999
2007-06-07 06:42:21 51°15.208 2°43.685 -999 -999 -999 -999
2007-06-07 06:42:26 51°15.207 2°43.656 -999 -999 -999 -999
2007-06-07 06:42:31 51°15.207 2°43.627 -999 -999 -999 -999
2007-06-07 06:42:36 51°15.205 2°43.598 -999 -999 -999 -999
2007-06-07 06:42:41 51°15.205 2°43.569 -999 -999 -999 -999
2007-06-07 06:42:46 51°15.205 2°43.539 -999 -999 -999 -999
2007-06-07 06:42:51 51°15.204 2°43.511 -999 -999 -999 -999
2007-06-07 06:42:56 51°15.204 2°43.482 -999 -999 -999 -999
2007-06-07 06:43:01 51°15.203 2°43.453 -999 -999 -999 -999
2007-06-07 06:43:06 51°15.203 2°43.424 -999 -999 -999 -999
2007-06-07 06:43:11 51°15.202 2°43.394 -999 -999 -999 -999
2007-06-07 06:43:16 51°15.203 2°43.366 -999 -999 -999 -999
2007-06-07 06:43:21 51°15.2 2°43.337 -999 -999 -999 -999
2007-06-07 06:43:26 51°15.202 2°43.308 -999 -999 -999 -999
2007-06-07 06:43:31 51°15.2 2°43.28 -999 -999 -999 -999
2007-06-07 06:43:36 51°15.2 2°43.251 -999 -999 -999 -999
2007-06-07 06:43:41 51°15.199 2°43.222 -999 -999 -999 -999
2007-06-07 06:43:46 51°15.197 2°43.193 -999 -999 -999 -999
2007-06-07 06:43:51 51°15.197 2°43.165 -999 -999 -999 -999
2007-06-07 06:43:57 51°15.195 2°43.131 -999 -999 -999 -999
2007-06-07 06:44:01 51°15.195 2°43.108 -999 -999 -999 -999
2007-06-07 06:44:06 51°15.193 2°43.079 -999 -999 -999 -999
2007-06-07 06:44:11 51°15.194 2°43.05 -999 -999 -999 -999
2007-06-07 06:44:16 51°15.192 2°43.022 -999 -999 -999 -999
2007-06-07 06:44:21 51°15.192 2°42.993 -999 -999 -999 -999
2007-06-07 06:44:26 51°15.192 2°42.965 -999 -999 -999 -999
2007-06-07 06:44:31 51°15.192 2°42.936 -999 -999 -999 -999
2007-06-07 06:44:36 51°15.194 2°42.907 -999 -999 -999 -999
2007-06-07 06:44:41 51°15.197 2°42.879 -999 -999 -999 -999
2007-06-07 06:44:46 51°15.199 2°42.85 -999 -999 -999 -999
2007-06-07 06:44:51 51°15.202 2°42.822 -999 -999 -999 -999
2007-06-07 06:44:56 51°15.205 2°42.794 -999 -999 -999 -999
2007-06-07 06:45:01 51°15.21 2°42.766 -999 -999 -999 -999
2007-06-07 06:45:06 51°15.215 2°42.738 -999 -999 -999 -999
2007-06-07 06:45:11 51°15.22 2°42.71 -999 -999 -999 -999
2007-06-07 06:45:16 51°15.227 2°42.683 -999 -999 -999 -999
2007-06-07 06:45:21 51°15.234 2°42.656 -999 -999 -999 -999
2007-06-07 06:45:26 51°15.242 2°42.63 -999 -999 -999 -999
2007-06-07 06:45:31 51°15.248 2°42.603 -999 -999 -999 -999
2007-06-07 06:45:36 51°15.256 2°42.577 -999 -999 -999 -999
2007-06-07 06:45:41 51°15.263 2°42.55 -999 -999 -999 -999
2007-06-07 06:45:46 51°15.271 2°42.524 -999 -999 -999 -999
2007-06-07 06:45:51 51°15.278 2°42.496 -999 -999 -999 -999
2007-06-07 06:45:56 51°15.286 2°42.47 -999 -999 -999 -999
2007-06-07 06:46:01 51°15.294 2°42.443 -999 -999 -999 -999
2007-06-07 06:46:06 51°15.302 2°42.417 -999 -999 -999 -999
2007-06-07 06:46:11 51°15.309 2°42.39 -999 -999 -999 -999
2007-06-07 06:46:16 51°15.317 2°42.364 -999 -999 -999 -999
2007-06-07 06:46:21 51°15.324 2°42.337 -999 -999 -999 -999
2007-06-07 06:46:26 51°15.331 2°42.31 -999 -999 -999 -999
2007-06-07 06:46:31 51°15.339 2°42.284 -999 -999 -999 -999
2007-06-07 06:46:36 51°15.347 2°42.258 -999 -999 -999 -999
2007-06-07 06:46:41 51°15.355 2°42.232 -999 -999 -999 -999
2007-06-07 06:46:46 51°15.363 2°42.205 -999 -999 -999 -999
2007-06-07 06:46:51 51°15.37 2°42.179 -999 -999 -999 -999
2007-06-07 06:46:56 51°15.378 2°42.152 -999 -999 -999 -999
2007-06-07 06:47:01 51°15.386 2°42.126 -999 -999 -999 -999
2007-06-07 06:47:06 51°15.393 2°42.099 -999 -999 -999 -999
2007-06-07 06:47:11 51°15.4 2°42.072 -999 -999 -999 -999
2007-06-07 06:47:16 51°15.408 2°42.045 -999 -999 -999 -999
2007-06-07 06:47:21 51°15.415 2°42.018 -999 -999 -999 -999
2007-06-07 06:47:26 51°15.422 2°41.992 -999 -999 -999 -999
2007-06-07 06:47:31 51°15.43 2°41.965 -999 -999 -999 -999
2007-06-07 06:47:36 51°15.438 2°41.938 -999 -999 -999 -999
2007-06-07 06:47:41 51°15.446 2°41.912 -999 -999 -999 -999
2007-06-07 06:47:46 51°15.453 2°41.886 -999 -999 -999 -999
2007-06-07 06:47:51 51°15.461 2°41.859 -999 -999 -999 -999
2007-06-07 06:47:56 51°15.468 2°41.832 -999 -999 -999 -999
2007-06-07 06:48:01 51°15.476 2°41.806 -999 -999 -999 -999
2007-06-07 06:48:06 51°15.483 2°41.779 -999 -999 -999 -999
2007-06-07 06:48:11 51°15.491 2°41.753 -999 -999 -999 -999
2007-06-07 06:48:16 51°15.498 2°41.726 -999 -999 -999 -999
2007-06-07 06:48:21 51°15.506 2°41.699 -999 -999 -999 -999
2007-06-07 06:48:26 51°15.514 2°41.672 -999 -999 -999 -999
2007-06-07 06:48:31 51°15.521 2°41.645 -999 -999 -999 -999
2007-06-07 06:48:36 51°15.53 2°41.619 -999 -999 -999 -999
2007-06-07 06:48:41 51°15.537 2°41.592 -999 -999 -999 -999
2007-06-07 06:48:46 51°15.544 2°41.565 -999 -999 -999 -999
2007-06-07 06:48:51 51°15.552 2°41.538 -999 -999 -999 -999
2007-06-07 06:48:56 51°15.56 2°41.511 -999 -999 -999 -999
2007-06-07 06:49:01 51°15.567 2°41.484 -999 -999 -999 -999
2007-06-07 06:49:06 51°15.574 2°41.457 -999 -999 -999 -999
2007-06-07 06:49:11 51°15.582 2°41.43 -999 -999 -999 -999
2007-06-07 06:49:16 51°15.589 2°41.402 -999 -999 -999 -999
2007-06-07 06:49:21 51°15.597 2°41.376 -999 -999 -999 -999
2007-06-07 06:49:26 51°15.605 2°41.349 -999 -999 -999 -999
2007-06-07 06:49:31 51°15.614 2°41.323 -999 -999 -999 -999
2007-06-07 06:49:36 51°15.624 2°41.298 -999 -999 -999 -999
2007-06-07 06:49:41 51°15.635 2°41.274 -999 -999 -999 -999
2007-06-07 06:49:46 51°15.645 2°41.249 -999 -999 -999 -999
2007-06-07 06:49:51 51°15.656 2°41.226 -999 -999 -999 -999
2007-06-07 06:49:56 51°15.666 2°41.202 -999 -999 -999 -999
2007-06-07 06:50:01 51°15.678 2°41.178 -999 -999 -999 -999
2007-06-07 06:50:06 51°15.689 2°41.154 -999 -999 -999 -999
2007-06-07 06:50:11 51°15.7 2°41.131 -999 -999 -999 -999
2007-06-07 06:50:16 51°15.713 2°41.11 -999 -999 -999 -999
2007-06-07 06:50:21 51°15.726 2°41.089 -999 -999 -999 -999
2007-06-07 06:50:26 51°15.74 2°41.07 -999 -999 -999 -999
2007-06-07 06:50:31 51°15.754 2°41.05 -999 -999 -999 -999
2007-06-07 06:50:37 51°15.771 2°41.028 -999 -999 -999 -999
2007-06-07 06:50:41 51°15.783 2°41.013 -999 -999 -999 -999
2007-06-07 06:50:46 51°15.798 2°40.995 -999 -999 -999 -999
2007-06-07 06:50:51 51°15.813 2°40.978 -999 -999 -999 -999
2007-06-07 06:50:56 51°15.828 2°40.963 -999 -999 -999 -999
2007-06-07 06:51:01 51°15.844 2°40.948 -999 -999 -999 -999
2007-06-07 06:51:06 51°15.861 2°40.934 -999 -999 -999 -999
2007-06-07 06:51:11 51°15.877 2°40.92 -999 -999 -999 -999
2007-06-07 06:51:16 51°15.894 2°40.907 -999 -999 -999 -999
2007-06-07 06:51:21 51°15.91 2°40.893 -999 -999 -999 -999
2007-06-07 06:51:26 51°15.927 2°40.88 -999 -999 -999 -999
2007-06-07 06:51:31 51°15.944 2°40.867 -999 -999 -999 -999
2007-06-07 06:51:36 51°15.961 2°40.854 -999 -999 -999 -999
2007-06-07 06:51:41 51°15.978 2°40.841 -999 -999 -999 -999
2007-06-07 06:51:46 51°15.995 2°40.828 -999 -999 -999 -999
2007-06-07 06:51:51 51°16.012 2°40.815 -999 -999 -999 -999
2007-06-07 06:51:56 51°16.029 2°40.802 -999 -999 -999 -999
2007-06-07 06:52:01 51°16.045 2°40.789 -999 -999 -999 -999
2007-06-07 06:52:06 51°16.062 2°40.774 -999 -999 -999 -999
2007-06-07 06:52:11 51°16.078 2°40.76 -999 -999 -999 -999
2007-06-07 06:52:16 51°16.094 2°40.746 -999 -999 -999 -999
2007-06-07 06:52:21 51°16.111 2°40.731 -999 -999 -999 -999
2007-06-07 06:52:26 51°16.127 2°40.716 -999 -999 -999 -999
2007-06-07 06:52:31 51°16.143 2°40.701 -999 -999 -999 -999
2007-06-07 06:52:37 51°16.162 2°40.682 -999 -999 -999 -999
2007-06-07 06:52:41 51°16.174 2°40.67 -999 -999 -999 -999
2007-06-07 06:52:46 51°16.19 2°40.654 -999 -999 -999 -999
2007-06-07 06:52:51 51°16.206 2°40.638 -999 -999 -999 -999
2007-06-07 06:52:56 51°16.222 2°40.623 -999 -999 -999 -999
2007-06-07 06:53:01 51°16.238 2°40.608 -999 -999 -999 -999
2007-06-07 06:53:06 51°16.254 2°40.593 -999 -999 -999 -999
2007-06-07 06:53:11 51°16.27 2°40.577 -999 -999 -999 -999
2007-06-07 06:53:16 51°16.286 2°40.562 -999 -999 -999 -999
2007-06-07 06:53:21 51°16.301 2°40.547 -999 -999 -999 -999
2007-06-07 06:53:26 51°16.317 2°40.53 -999 -999 -999 -999
2007-06-07 06:53:31 51°16.332 2°40.513 -999 -999 -999 -999
2007-06-07 06:53:36 51°16.347 2°40.496 -999 -999 -999 -999
2007-06-07 06:53:41 51°16.361 2°40.478 -999 -999 -999 -999
2007-06-07 06:53:46 51°16.376 2°40.461 -999 -999 -999 -999
2007-06-07 06:53:51 51°16.39 2°40.443 -999 -999 -999 -999
2007-06-07 06:53:56 51°16.404 2°40.425 -999 -999 -999 -999
2007-06-07 06:54:01 51°16.419 2°40.407 -999 -999 -999 -999
2007-06-07 06:54:06 51°16.433 2°40.39 -999 -999 -999 -999
2007-06-07 06:54:11 51°16.448 2°40.372 -999 -999 -999 -999
2007-06-07 06:54:16 51°16.462 2°40.354 -999 -999 -999 -999
2007-06-07 06:54:21 51°16.476 2°40.336 -999 -999 -999 -999
2007-06-07 06:54:26 51°16.491 2°40.319 -999 -999 -999 -999
2007-06-07 06:54:31 51°16.505 2°40.301 -999 -999 -999 -999
2007-06-07 06:54:36 51°16.52 2°40.283 -999 -999 -999 -999
2007-06-07 06:54:41 51°16.534 2°40.265 -999 -999 -999 -999
2007-06-07 06:54:46 51°16.548 2°40.248 -999 -999 -999 -999
2007-06-07 06:54:51 51°16.563 2°40.23 -999 -999 -999 -999
2007-06-07 06:54:56 51°16.577 2°40.212 -999 -999 -999 -999
2007-06-07 06:55:01 51°16.592 2°40.194 -999 -999 -999 -999
2007-06-07 06:55:06 51°16.606 2°40.176 -999 -999 -999 -999
2007-06-07 06:55:11 51°16.62 2°40.158 -999 -999 -999 -999
2007-06-07 06:55:16 51°16.634 2°40.14 -999 -999 -999 -999
2007-06-07 06:55:21 51°16.649 2°40.122 -999 -999 -999 -999
2007-06-07 06:55:26 51°16.663 2°40.103 -999 -999 -999 -999
2007-06-07 06:55:31 51°16.677 2°40.086 -999 -999 -999 -999
2007-06-07 06:55:36 51°16.692 2°40.068 -999 -999 -999 -999
2007-06-07 06:55:41 51°16.706 2°40.05 -999 -999 -999 -999
2007-06-07 06:55:46 51°16.721 2°40.031 -999 -999 -999 -999
2007-06-07 06:55:51 51°16.735 2°40.013 -999 -999 -999 -999
2007-06-07 06:55:56 51°16.749 2°39.995 -999 -999 -999 -999
2007-06-07 06:56:01 51°16.764 2°39.977 -999 -999 -999 -999
2007-06-07 06:56:06 51°16.778 2°39.959 -999 -999 -999 -999
2007-06-07 06:56:11 51°16.792 2°39.94 -999 -999 -999 -999
2007-06-07 06:56:16 51°16.807 2°39.922 -999 -999 -999 -999
2007-06-07 06:56:21 51°16.821 2°39.904 -999 -999 -999 -999
2007-06-07 06:56:26 51°16.836 2°39.886 -999 -999 -999 -999
2007-06-07 06:56:31 51°16.85 2°39.867 -999 -999 -999 -999
2007-06-07 06:56:36 51°16.864 2°39.848 -999 -999 -999 -999
2007-06-07 06:56:41 51°16.878 2°39.83 -999 -999 -999 -999
2007-06-07 06:56:46 51°16.893 2°39.812 -999 -999 -999 -999
2007-06-07 06:56:51 51°16.907 2°39.793 -999 -999 -999 -999
2007-06-07 06:56:56 51°16.921 2°39.775 -999 -999 -999 -999
2007-06-07 06:57:01 51°16.935 2°39.756 -999 -999 -999 -999
2007-06-07 06:57:06 51°16.949 2°39.738 -999 -999 -999 -999
2007-06-07 06:57:11 51°16.963 2°39.72 -999 -999 -999 -999
2007-06-07 06:57:16 51°16.977 2°39.702 -999 -999 -999 -999
2007-06-07 06:57:21 51°16.991 2°39.683 -999 -999 -999 -999
2007-06-07 06:57:26 51°17.006 2°39.665 -999 -999 -999 -999
2007-06-07 06:57:31 51°17.02 2°39.646 -999 -999 -999 -999
2007-06-07 06:57:36 51°17.034 2°39.628 -999 -999 -999 -999
2007-06-07 06:57:41 51°17.048 2°39.609 -999 -999 -999 -999
2007-06-07 06:57:46 51°17.062 2°39.591 -999 -999 -999 -999
2007-06-07 06:57:51 51°17.076 2°39.572 -999 -999 -999 -999
2007-06-07 06:57:56 51°17.091 2°39.554 -999 -999 -999 -999
2007-06-07 06:58:01 51°17.105 2°39.535 -999 -999 -999 -999
2007-06-07 06:58:06 51°17.119 2°39.516 -999 -999 -999 -999
2007-06-07 06:58:11 51°17.133 2°39.498 -999 -999 -999 -999
2007-06-07 06:58:16 51°17.148 2°39.48 -999 -999 -999 -999
2007-06-07 06:58:21 51°17.162 2°39.462 -999 -999 -999 -999
2007-06-07 06:58:26 51°17.176 2°39.444 -999 -999 -999 -999
2007-06-07 06:58:31 51°17.19 2°39.426 -999 -999 -999 -999
2007-06-07 06:58:36 51°17.205 2°39.408 -999 -999 -999 -999
2007-06-07 06:58:41 51°17.219 2°39.39 -999 -999 -999 -999
2007-06-07 06:58:46 51°17.234 2°39.372 -999 -999 -999 -999
2007-06-07 06:58:51 51°17.248 2°39.353 -999 -999 -999 -999
2007-06-07 06:58:56 51°17.262 2°39.335 -999 -999 -999 -999
2007-06-07 06:59:01 51°17.276 2°39.317 -999 -999 -999 -999
2007-06-07 06:59:06 51°17.29 2°39.299 -999 -999 -999 -999
2007-06-07 06:59:11 51°17.304 2°39.28 -999 -999 -999 -999
2007-06-07 06:59:16 51°17.319 2°39.261 -999 -999 -999 -999
2007-06-07 06:59:21 51°17.334 2°39.243 -999 -999 -999 -999
2007-06-07 06:59:26 51°17.348 2°39.223 -999 -999 -999 -999
2007-06-07 06:59:31 51°17.363 2°39.205 -999 -999 -999 -999
2007-06-07 06:59:36 51°17.377 2°39.186 -999 -999 -999 -999
2007-06-07 06:59:41 51°17.392 2°39.168 -999 -999 -999 -999
2007-06-07 06:59:46 51°17.407 2°39.15 -999 -999 -999 -999
2007-06-07 06:59:51 51°17.421 2°39.132 -999 -999 -999 -999
2007-06-07 06:59:56 51°17.436 2°39.114 -999 -999 -999 -999
2007-06-07 07:00:01 51°17.451 2°39.096 -999 -999 -999 -999
2007-06-07 07:00:06 51°17.466 2°39.078 -999 -999 -999 -999
2007-06-07 07:00:11 51°17.481 2°39.061 -999 -999 -999 -999
2007-06-07 07:00:16 51°17.495 2°39.043 -999 -999 -999 -999
2007-06-07 07:00:21 51°17.51 2°39.025 -999 -999 -999 -999
2007-06-07 07:00:26 51°17.525 2°39.007 -999 -999 -999 -999
2007-06-07 07:00:31 51°17.539 2°38.989 -999 -999 -999 -999
2007-06-07 07:00:36 51°17.554 2°38.971 -999 -999 -999 -999
2007-06-07 07:00:41 51°17.569 2°38.953 -999 -999 -999 -999
2007-06-07 07:00:46 51°17.583 2°38.935 -999 -999 -999 -999
2007-06-07 07:00:51 51°17.599 2°38.918 -999 -999 -999 -999
2007-06-07 07:00:56 51°17.613 2°38.899 -999 -999 -999 -999
2007-06-07 07:01:01 51°17.628 2°38.882 -999 -999 -999 -999
2007-06-07 07:01:06 51°17.643 2°38.864 -999 -999 -999 -999
2007-06-07 07:01:11 51°17.658 2°38.846 -999 -999 -999 -999
2007-06-07 07:01:16 51°17.673 2°38.828 -999 -999 -999 -999
2007-06-07 07:01:21 51°17.687 2°38.81 -999 -999 -999 -999
2007-06-07 07:01:26 51°17.701 2°38.791 -999 -999 -999 -999
2007-06-07 07:01:31 51°17.716 2°38.774 -999 -999 -999 -999
2007-06-07 07:01:36 51°17.73 2°38.755 -999 -999 -999 -999
2007-06-07 07:01:41 51°17.745 2°38.738 -999 -999 -999 -999
2007-06-07 07:01:46 51°17.76 2°38.72 -999 -999 -999 -999
2007-06-07 07:01:51 51°17.775 2°38.702 -999 -999 -999 -999
2007-06-07 07:01:57 51°17.793 2°38.681 -999 -999 -999 -999
2007-06-07 07:02:01 51°17.805 2°38.666 -999 -999 -999 -999
2007-06-07 07:02:06 51°17.82 2°38.649 -999 -999 -999 -999
2007-06-07 07:02:11 51°17.835 2°38.631 -999 -999 -999 -999
2007-06-07 07:02:16 51°17.85 2°38.613 -999 -999 -999 -999
2007-06-07 07:02:21 51°17.865 2°38.596 -999 -999 -999 -999
2007-06-07 07:02:26 51°17.88 2°38.578 -999 -999 -999 -999
2007-06-07 07:02:31 51°17.895 2°38.561 -999 -999 -999 -999
2007-06-07 07:02:36 51°17.91 2°38.543 -999 -999 -999 -999
2007-06-07 07:02:41 51°17.925 2°38.525 -999 -999 -999 -999
2007-06-07 07:02:46 51°17.94 2°38.508 -999 -999 -999 -999
2007-06-07 07:02:51 51°17.955 2°38.489 -999 -999 -999 -999
2007-06-07 07:02:56 51°17.97 2°38.471 -999 -999 -999 -999
2007-06-07 07:03:01 51°17.985 2°38.454 -999 -999 -999 -999
2007-06-07 07:03:06 51°18 2°38.436 -999 -999 -999 -999
2007-06-07 07:03:11 51°18.015 2°38.418 -999 -999 -999 -999
2007-06-07 07:03:16 51°18.031 2°38.402 -999 -999 -999 -999
2007-06-07 07:03:21 51°18.045 2°38.384 -999 -999 -999 -999
2007-06-07 07:03:26 51°18.061 2°38.366 -999 -999 -999 -999
2007-06-07 07:03:31 51°18.075 2°38.348 -999 -999 -999 -999
2007-06-07 07:03:36 51°18.091 2°38.331 -999 -999 -999 -999
2007-06-07 07:03:41 51°18.105 2°38.312 -999 -999 -999 -999
2007-06-07 07:03:46 51°18.12 2°38.294 -999 -999 -999 -999
2007-06-07 07:03:51 51°18.135 2°38.277 -999 -999 -999 -999
2007-06-07 07:03:56 51°18.15 2°38.259 -999 -999 -999 -999
2007-06-07 07:04:01 51°18.164 2°38.241 -999 -999 -999 -999
2007-06-07 07:04:06 51°18.18 2°38.223 -999 -999 -999 -999
2007-06-07 07:04:11 51°18.195 2°38.205 -999 -999 -999 -999
2007-06-07 07:04:16 51°18.21 2°38.187 -999 -999 -999 -999
2007-06-07 07:04:21 51°18.224 2°38.169 -999 -999 -999 -999
2007-06-07 07:04:26 51°18.24 2°38.151 -999 -999 -999 -999
2007-06-07 07:04:31 51°18.254 2°38.133 -999 -999 -999 -999
2007-06-07 07:04:36 51°18.269 2°38.115 -999 -999 -999 -999
2007-06-07 07:04:41 51°18.284 2°38.098 -999 -999 -999 -999
2007-06-07 07:04:46 51°18.299 2°38.08 -999 -999 -999 -999
2007-06-07 07:04:51 51°18.314 2°38.062 -999 -999 -999 -999
2007-06-07 07:04:56 51°18.329 2°38.044 -999 -999 -999 -999
2007-06-07 07:05:01 51°18.344 2°38.027 -999 -999 -999 -999
2007-06-07 07:05:06 51°18.359 2°38.009 -999 -999 -999 -999
2007-06-07 07:05:11 51°18.374 2°37.992 -999 -999 -999 -999
2007-06-07 07:05:16 51°18.389 2°37.974 -999 -999 -999 -999
2007-06-07 07:05:21 51°18.404 2°37.955 -999 -999 -999 -999
2007-06-07 07:05:26 51°18.419 2°37.938 -999 -999 -999 -999
2007-06-07 07:05:31 51°18.433 2°37.919 -999 -999 -999 -999
2007-06-07 07:05:36 51°18.448 2°37.902 -999 -999 -999 -999
2007-06-07 07:05:41 51°18.463 2°37.883 -999 -999 -999 -999
2007-06-07 07:05:46 51°18.478 2°37.866 -999 -999 -999 -999
2007-06-07 07:05:51 51°18.493 2°37.848 -999 -999 -999 -999
2007-06-07 07:05:56 51°18.509 2°37.831 -999 -999 -999 -999
2007-06-07 07:06:01 51°18.523 2°37.812 -999 -999 -999 -999
2007-06-07 07:06:06 51°18.538 2°37.795 -999 -999 -999 -999
2007-06-07 07:06:11 51°18.553 2°37.776 -999 -999 -999 -999
2007-06-07 07:06:17 51°18.571 2°37.755 -999 -999 -999 -999
2007-06-07 07:06:21 51°18.583 2°37.74 -999 -999 -999 -999
2007-06-07 07:06:26 51°18.598 2°37.722 -999 -999 -999 -999
2007-06-07 07:06:31 51°18.612 2°37.704 -999 -999 -999 -999
2007-06-07 07:06:37 51°18.63 2°37.682 -999 -999 -999 -999
2007-06-07 07:06:41 51°18.642 2°37.667 -999 -999 -999 -999
2007-06-07 07:06:46 51°18.656 2°37.648 -999 -999 -999 -999
2007-06-07 07:06:51 51°18.671 2°37.63 -999 -999 -999 -999
2007-06-07 07:06:56 51°18.686 2°37.611 -999 -999 -999 -999
2007-06-07 07:07:01 51°18.7 2°37.592 -999 -999 -999 -999
2007-06-07 07:07:06 51°18.714 2°37.573 -999 -999 -999 -999
2007-06-07 07:07:11 51°18.729 2°37.554 -999 -999 -999 -999
2007-06-07 07:07:16 51°18.743 2°37.535 -999 -999 -999 -999
2007-06-07 07:07:21 51°18.758 2°37.517 -999 -999 -999 -999
2007-06-07 07:07:26 51°18.773 2°37.498 -999 -999 -999 -999
2007-06-07 07:07:31 51°18.787 2°37.479 -999 -999 -999 -999
2007-06-07 07:07:36 51°18.802 2°37.461 -999 -999 -999 -999
2007-06-07 07:07:41 51°18.816 2°37.443 -999 -999 -999 -999
2007-06-07 07:07:46 51°18.831 2°37.424 -999 -999 -999 -999
2007-06-07 07:07:51 51°18.845 2°37.406 -999 -999 -999 -999
2007-06-07 07:07:56 51°18.86 2°37.387 -999 -999 -999 -999
2007-06-07 07:08:01 51°18.874 2°37.369 -999 -999 -999 -999
2007-06-07 07:08:06 51°18.888 2°37.35 -999 -999 -999 -999
2007-06-07 07:08:11 51°18.902 2°37.332 -999 -999 -999 -999
2007-06-07 07:08:16 51°18.916 2°37.313 -999 -999 -999 -999
2007-06-07 07:08:21 51°18.93 2°37.295 -999 -999 -999 -999
2007-06-07 07:08:26 51°18.944 2°37.276 -999 -999 -999 -999
2007-06-07 07:08:31 51°18.958 2°37.257 -999 -999 -999 -999
2007-06-07 07:08:37 51°18.975 2°37.235 -999 -999 -999 -999
2007-06-07 07:08:41 51°18.987 2°37.221 -999 -999 -999 -999
2007-06-07 07:08:46 51°19.001 2°37.202 -999 -999 -999 -999
2007-06-07 07:08:51 51°19.016 2°37.184 -999 -999 -999 -999
2007-06-07 07:08:56 51°19.03 2°37.165 -999 -999 -999 -999
2007-06-07 07:09:01 51°19.044 2°37.147 -999 -999 -999 -999
2007-06-07 07:09:06 51°19.059 2°37.128 -999 -999 -999 -999
2007-06-07 07:09:11 51°19.073 2°37.11 -999 -999 -999 -999
2007-06-07 07:09:16 51°19.088 2°37.092 -999 -999 -999 -999
2007-06-07 07:09:21 51°19.102 2°37.074 -999 -999 -999 -999
2007-06-07 07:09:26 51°19.117 2°37.055 -999 -999 -999 -999
2007-06-07 07:09:31 51°19.131 2°37.037 -999 -999 -999 -999
2007-06-07 07:09:36 51°19.146 2°37.019 -999 -999 -999 -999
2007-06-07 07:09:41 51°19.16 2°37 -999 -999 -999 -999
2007-06-07 07:09:46 51°19.175 2°36.982 -999 -999 -999 -999
2007-06-07 07:09:51 51°19.19 2°36.964 -999 -999 -999 -999
2007-06-07 07:09:56 51°19.204 2°36.946 -999 -999 -999 -999
2007-06-07 07:10:01 51°19.218 2°36.927 -999 -999 -999 -999
2007-06-07 07:10:06 51°19.233 2°36.909 -999 -999 -999 -999
2007-06-07 07:10:11 51°19.248 2°36.891 -999 -999 -999 -999
2007-06-07 07:10:16 51°19.262 2°36.873 -999 -999 -999 -999
2007-06-07 07:10:21 51°19.277 2°36.855 -999 -999 -999 -999
2007-06-07 07:10:26 51°19.291 2°36.837 -999 -999 -999 -999
2007-06-07 07:10:31 51°19.306 2°36.819 -999 -999 -999 -999
2007-06-07 07:10:37 51°19.323 2°36.797 -999 -999 -999 -999
2007-06-07 07:10:41 51°19.335 2°36.783 -999 -999 -999 -999
2007-06-07 07:10:46 51°19.349 2°36.765 -999 -999 -999 -999
2007-06-07 07:10:51 51°19.363 2°36.749 -999 -999 -999 -999
2007-06-07 07:10:56 51°19.377 2°36.732 -999 -999 -999 -999
2007-06-07 07:11:01 51°19.391 2°36.715 -999 -999 -999 -999
2007-06-07 07:11:06 51°19.405 2°36.698 -999 -999 -999 -999
2007-06-07 07:11:11 51°19.418 2°36.682 -999 -999 -999 -999
2007-06-07 07:11:16 51°19.432 2°36.665 -999 -999 -999 -999
2007-06-07 07:11:21 51°19.445 2°36.649 -999 -999 -999 -999
2007-06-07 07:11:26 51°19.458 2°36.632 -999 -999 -999 -999
2007-06-07 07:11:31 51°19.472 2°36.616 -999 -999 -999 -999
2007-06-07 07:11:36 51°19.485 2°36.6 -999 -999 -999 -999
2007-06-07 07:11:41 51°19.499 2°36.584 -999 -999 -999 -999
2007-06-07 07:11:46 51°19.512 2°36.567 -999 -999 -999 -999
2007-06-07 07:11:51 51°19.526 2°36.551 -999 -999 -999 -999
2007-06-07 07:11:56 51°19.539 2°36.535 -999 -999 -999 -999
2007-06-07 07:12:01 51°19.553 2°36.519 -999 -999 -999 -999
2007-06-07 07:12:06 51°19.566 2°36.502 -999 -999 -999 -999
2007-06-07 07:12:11 51°19.579 2°36.486 -999 -999 -999 -999
2007-06-07 07:12:16 51°19.593 2°36.47 -999 -999 -999 -999
2007-06-07 07:12:21 51°19.608 2°36.457 -999 -999 -999 -999
2007-06-07 07:12:26 51°19.622 2°36.445 -999 -999 -999 -999
2007-06-07 07:12:31 51°19.638 2°36.433 -999 -999 -999 -999
2007-06-07 07:12:36 51°19.653 2°36.424 -999 -999 -999 -999
2007-06-07 07:12:41 51°19.669 2°36.415 -999 -999 -999 -999
2007-06-07 07:12:46 51°19.685 2°36.408 -999 -999 -999 -999
2007-06-07 07:12:51 51°19.701 2°36.403 -999 -999 -999 -999
2007-06-07 07:12:56 51°19.716 2°36.399 -999 -999 -999 -999
2007-06-07 07:13:01 51°19.731 2°36.397 -999 -999 -999 -999
2007-06-07 07:13:06 51°19.746 2°36.398 -999 -999 -999 -999
2007-06-07 07:13:11 51°19.759 2°36.401 -999 -999 -999 -999
2007-06-07 07:13:16 51°19.771 2°36.409 -999 -999 -999 -999
2007-06-07 07:13:21 51°19.781 2°36.418 -999 -999 -999 -999
2007-06-07 07:13:26 51°19.79 2°36.429 -999 -999 -999 -999
2007-06-07 07:13:31 51°19.798 2°36.441 -999 -999 -999 -999
2007-06-07 07:13:37 51°19.808 2°36.458 -999 -999 -999 -999
2007-06-07 07:13:41 51°19.814 2°36.469 -999 -999 -999 -999
2007-06-07 07:13:46 51°19.821 2°36.482 -999 -999 -999 -999
2007-06-07 07:13:51 51°19.829 2°36.495 -999 -999 -999 -999
2007-06-07 07:13:56 51°19.838 2°36.507 -999 -999 -999 -999
2007-06-07 07:14:01 51°19.847 2°36.517 -999 -999 -999 -999
2007-06-07 07:14:06 51°19.857 2°36.525 -999 -999 -999 -999
2007-06-07 07:14:11 51°19.866 2°36.534 -999 -999 -999 -999
2007-06-07 07:14:16 51°19.876 2°36.542 -999 -999 -999 -999
2007-06-07 07:14:21 51°19.886 2°36.551 -999 -999 -999 -999
2007-06-07 07:14:26 51°19.895 2°36.56 -999 -999 -999 -999
2007-06-07 07:14:31 51°19.902 2°36.569 -999 -999 -999 -999
2007-06-07 07:14:36 51°19.91 2°36.579 -999 -999 -999 -999
2007-06-07 07:14:41 51°19.916 2°36.59 -999 -999 -999 -999
2007-06-07 07:14:46 51°19.922 2°36.6 -999 -999 -999 -999
2007-06-07 07:14:51 51°19.927 2°36.611 -999 -999 -999 -999
2007-06-07 07:14:56 51°19.933 2°36.621 -999 -999 -999 -999
2007-06-07 07:15:01 51°19.938 2°36.632 -999 -999 -999 -999
2007-06-07 07:15:06 51°19.943 2°36.642 -999 -999 -999 -999
2007-06-07 07:15:11 51°19.948 2°36.651 -999 -999 -999 -999
2007-06-07 07:15:16 51°19.953 2°36.66 -999 -999 -999 -999
2007-06-07 07:15:21 51°19.958 2°36.669 -999 -999 -999 -999
2007-06-07 07:15:26 51°19.963 2°36.677 -999 -999 -999 -999
2007-06-07 07:15:31 51°19.968 2°36.686 -999 -999 -999 -999
2007-06-07 07:15:36 51°19.974 2°36.694 -999 -999 -999 -999
2007-06-07 07:15:41 51°19.979 2°36.702 -999 -999 -999 -999
2007-06-07 07:15:46 51°19.985 2°36.71 -999 -999 -999 -999
2007-06-07 07:15:51 51°19.99 2°36.719 -999 -999 -999 -999
2007-06-07 07:15:56 51°19.995 2°36.727 -999 -999 -999 -999
2007-06-07 07:16:01 51°20.001 2°36.736 -999 -999 -999 -999
2007-06-07 07:16:06 51°20.006 2°36.745 -999 -999 -999 -999
2007-06-07 07:16:11 51°20.012 2°36.754 -999 -999 -999 -999
2007-06-07 07:16:16 51°20.017 2°36.763 -999 -999 -999 -999
2007-06-07 07:16:21 51°20.022 2°36.772 -999 -999 -999 -999
2007-06-07 07:16:26 51°20.027 2°36.782 -999 -999 -999 -999
2007-06-07 07:16:31 51°20.031 2°36.792 -999 -999 -999 -999